Time,TemperatureF,DewpointF,PressureIn,WindDirection,WindDirectionDegrees,WindSpeedMPH,WindSpeedGustMPH,Humidity,HourlyPrecipIn,Conditions,Clouds,dailyrainin,SoftwareType,DateUTC
2013-01-04 00:00:00,40.3,38.2,29.85,SSE,168,0.0,0.0,92,0.00,,SCT040,0.00,VWS V14.01,2013-01-04 08:00:00,
2013-01-04 00:10:00,40.3,38.4,29.85,SSE,168,0.0,0.0,93,0.00,,SCT040,0.00,VWS V14.01,2013-01-04 08:10:00,
2013-01-04 00:20:00,40.3,38.4,29.85,SSE,168,0.0,0.0,93,0.00,,SCT040,0.00,VWS V14.01,2013-01-04 08:20:00,
2013-01-04 00:30:00,40.1,38.2,29.85,SSE,168,0.0,0.0,93,0.00,,SCT040,0.00,VWS V14.01,2013-01-04 08:30:00,
2013-01-04 00:40:00,40.3,38.7,29.85,SSE,167,0.0,0.0,94,0.00,,SCT040,0.00,VWS V14.01,2013-01-04 08:40:00,
2013-01-04 00:50:00,40.5,38.9,29.85,SSE,167,0.0,0.0,94,0.00,,,0.00,VWS V14.01,2013-01-04 08:50:00,
2013-01-04 01:00:00,39.4,37.5,29.85,SSE,167,0.0,0.0,93,0.00,,,0.00,VWS V14.01,2013-01-04 09:00:00,
2013-01-04 01:10:00,38.8,37.0,29.85,SSE,167,0.0,0.0,93,0.00,,,0.00,VWS V14.01,2013-01-04 09:10:00,
2013-01-04 01:20:00,38.7,37.1,29.85,SSE,167,0.0,0.0,94,0.00,,,0.00,VWS V14.01,2013-01-04 09:20:00,
2013-01-04 01:30:00,39.0,37.4,29.85,SSE,167,0.0,0.0,94,0.00,,,0.00,VWS V14.01,2013-01-04 09:30:00,
2013-01-04 01:40:00,39.0,37.4,29.85,SSE,167,0.0,0.0,94,0.00,,,0.00,VWS V14.01,2013-01-04 09:40:00,
2013-01-04 01:50:00,39.0,37.7,29.85,SSE,167,0.0,0.0,95,0.00,,,0.00,VWS V14.01,2013-01-04 09:50:00,
2013-01-04 02:00:00,39.0,37.7,29.85,SSE,167,0.0,0.0,95,0.00,,,0.00,VWS V14.01,2013-01-04 10:00:00,
2013-01-04 02:10:00,38.8,37.5,29.85,SSE,167,0.0,0.0,95,0.00,,,0.00,VWS V14.01,2013-01-04 10:10:00,
2013-01-04 02:20:00,38.8,37.8,29.85,SSE,167,0.0,0.0,96,0.00,,,0.00,VWS V14.01,2013-01-04 10:20:00,
2013-01-04 02:30:00,38.8,37.8,29.85,SSE,167,0.0,0.0,96,0.00,,,0.00,VWS V14.01,2013-01-04 10:30:00,
2013-01-04 02:40:00,38.8,37.8,29.85,SSE,167,0.0,0.0,96,0.00,,,0.00,VWS V14.01,2013-01-04 10:40:00,
2013-01-04 02:50:00,38.8,37.8,29.85,SSE,167,0.0,0.0,96,0.00,,,0.00,VWS V14.01,2013-01-04 10:50:00,
2013-01-04 03:00:00,38.1,37.1,29.85,SSE,167,0.0,0.0,96,0.00,,,0.00,VWS V14.01,2013-01-04 11:00:00,
2013-01-04 03:10:00,37.8,36.7,29.85,SSE,167,0.0,0.0,96,0.00,,,0.00,VWS V14.01,2013-01-04 11:10:00,
2013-01-04 03:20:00,37.8,36.7,29.85,SSE,167,0.0,0.0,96,0.00,,,0.00,VWS V14.01,2013-01-04 11:20:00,
2013-01-04 03:30:00,38.1,37.3,29.83,SSE,167,0.0,0.0,97,0.00,,,0.00,VWS V14.01,2013-01-04 11:30:00,
2013-01-04 03:40:00,38.7,38.2,29.83,SSE,167,0.0,0.0,98,0.00,,,0.00,VWS V14.01,2013-01-04 11:40:00,
2013-01-04 03:50:00,38.5,37.7,29.85,SSE,167,0.0,0.0,97,0.00,,CLR,0.00,VWS V14.01,2013-01-04 11:50:00,
2013-01-04 04:00:00,38.3,37.5,29.85,SSE,167,0.0,0.0,97,0.00,,CLR,0.00,VWS V14.01,2013-01-04 12:00:00,
2013-01-04 04:10:00,38.7,38.2,29.83,SSE,167,0.0,0.0,98,0.00,,CLR,0.00,VWS V14.01,2013-01-04 12:10:00,
2013-01-04 04:20:00,38.7,38.2,29.83,SSE,167,0.0,0.0,98,0.00,,CLR,0.00,VWS V14.01,2013-01-04 12:20:00,
2013-01-04 04:30:00,38.5,38.0,29.83,SSE,167,0.0,0.0,98,0.00,,CLR,0.00,VWS V14.01,2013-01-04 12:30:00,
2013-01-04 04:40:00,38.3,37.8,29.83,SSE,167,0.0,0.0,98,0.00,,CLR,0.00,VWS V14.01,2013-01-04 12:40:00,
2013-01-04 04:50:00,37.6,37.1,29.85,SSE,167,0.0,0.0,98,0.00,,CLR,0.00,VWS V14.01,2013-01-04 12:50:00,
2013-01-04 05:00:00,37.4,36.9,29.85,SSE,167,0.0,0.0,98,0.00,,CLR,0.00,VWS V14.01,2013-01-04 13:00:00,
2013-01-04 05:10:00,37.0,36.5,29.85,SSE,167,0.0,0.0,98,0.00,,CLR,0.00,VWS V14.01,2013-01-04 13:10:00,
2013-01-04 05:20:00,37.0,36.5,29.85,SSE,167,0.0,0.0,98,0.00,,CLR,0.00,VWS V14.01,2013-01-04 13:20:00,
2013-01-04 05:30:00,37.2,36.7,29.85,SSE,167,0.0,0.0,98,0.00,,CLR,0.00,VWS V14.01,2013-01-04 13:30:00,
2013-01-04 05:40:00,37.0,36.5,29.85,SSE,167,0.0,0.0,98,0.00,,,0.00,VWS V14.01,2013-01-04 13:40:00,
2013-01-04 05:50:00,37.0,36.8,29.85,SSE,167,0.0,0.0,99,0.00,,CLR,0.00,VWS V14.01,2013-01-04 13:50:00,
2013-01-04 06:00:00,36.7,36.4,29.85,SSE,167,0.0,0.0,99,0.00,,CLR,0.00,VWS V14.01,2013-01-04 14:00:00,
2013-01-04 06:10:00,37.0,36.8,29.85,SSE,167,0.0,0.0,99,0.00,,CLR,0.00,VWS V14.01,2013-01-04 14:10:00,
2013-01-04 06:20:00,37.0,36.8,29.85,SSE,167,0.0,0.0,99,0.00,,CLR,0.00,VWS V14.01,2013-01-04 14:20:00,
2013-01-04 06:30:00,37.0,36.8,29.85,SSE,167,0.0,0.0,99,0.00,,CLR,0.00,VWS V14.01,2013-01-04 14:30:00,
2013-01-04 06:40:00,37.0,36.8,29.85,SSE,167,0.0,0.0,99,0.00,,CLR,0.00,VWS V14.01,2013-01-04 14:40:00,
2013-01-04 06:50:00,36.9,36.6,29.85,SSE,167,0.0,0.0,99,0.00,,,0.00,VWS V14.01,2013-01-04 14:50:00,
2013-01-04 07:00:00,36.9,36.6,29.83,SSE,167,0.0,0.0,99,0.00,,,0.00,VWS V14.01,2013-01-04 15:00:00,
2013-01-04 07:10:00,37.0,36.8,29.83,SSE,167,0.0,0.0,99,0.00,,,0.00,VWS V14.01,2013-01-04 15:10:00,
2013-01-04 07:20:00,37.8,37.5,29.85,SSE,156,0.0,0.0,99,0.00,,,0.00,VWS V14.01,2013-01-04 15:20:00,
2013-01-04 07:30:00,37.8,37.5,29.85,ESE,107,0.0,0.0,99,0.00,,,0.00,VWS V14.01,2013-01-04 15:30:00,
2013-01-04 07:40:00,37.8,37.8,29.85,ESE,107,0.0,0.0,100,0.00,,,0.00,VWS V14.01,2013-01-04 15:40:00,
2013-01-04 07:50:00,37.0,37.0,29.85,ESE,107,0.0,0.0,100,0.00,,,0.00,VWS V14.01,2013-01-04 15:50:00,
2013-01-04 08:00:00,36.9,36.9,29.85,ESE,107,0.0,0.0,100,0.00,,,0.00,VWS V14.01,2013-01-04 16:00:00,
2013-01-04 08:10:00,37.4,37.4,29.85,ESE,107,0.0,0.0,100,0.00,,,0.00,VWS V14.01,2013-01-04 16:10:00,
2013-01-04 08:20:00,38.1,38.1,29.88,ESE,107,0.0,0.0,100,0.00,,,0.00,VWS V14.01,2013-01-04 16:20:00,
2013-01-04 08:30:00,40.8,40.8,29.88,ESE,107,0.0,0.0,100,0.00,,,0.00,VWS V14.01,2013-01-04 16:30:00,
2013-01-04 08:40:00,40.3,40.3,29.88,ESE,107,0.0,0.0,100,0.00,,,0.00,VWS V14.01,2013-01-04 16:40:00,
2013-01-04 08:50:00,40.3,40.3,29.88,ESE,107,0.0,0.0,100,0.00,,,0.00,VWS V14.01,2013-01-04 16:50:00,
2013-01-04 09:00:00,42.4,41.9,29.88,ESE,107,0.0,0.0,98,0.00,,,0.00,VWS V14.01,2013-01-04 17:00:00,
2013-01-04 09:10:00,42.4,41.9,29.88,SW,219,0.0,0.0,98,0.00,,,0.00,VWS V14.01,2013-01-04 17:10:00,
2013-01-04 09:20:00,43.0,41.9,29.88,WSW,237,0.0,0.0,96,0.00,,,0.00,VWS V14.01,2013-01-04 17:20:00,
2013-01-04 09:30:00,44.1,42.5,29.88,SW,218,0.0,0.0,94,0.00,,,0.00,VWS V14.01,2013-01-04 17:30:00,
2013-01-04 09:40:00,45.1,43.0,29.88,SW,221,0.0,0.0,92,0.00,,,0.00,VWS V14.01,2013-01-04 17:40:00,
2013-01-04 09:50:00,45.9,43.4,29.88,SW,221,0.0,0.0,91,0.00,,,0.00,VWS V14.01,2013-01-04 17:50:00,
2013-01-04 10:00:00,46.2,42.3,29.88,SSW,213,0.0,0.0,86,0.00,,,0.00,VWS V14.01,2013-01-04 18:00:00,
2013-01-04 10:10:00,46.6,42.0,29.88,SW,216,0.0,0.0,84,0.00,,,0.00,VWS V14.01,2013-01-04 18:10:00,
2013-01-04 10:20:00,46.6,42.0,29.88,SW,216,0.0,0.0,84,0.00,,,0.00,VWS V14.01,2013-01-04 18:20:00,
2013-01-04 10:30:00,47.7,43.1,29.88,SW,223,0.0,0.0,84,0.00,,,0.00,VWS V14.01,2013-01-04 18:30:00,
2013-01-04 10:40:00,47.7,43.1,29.88,West,281,0.0,0.0,84,0.00,,,0.00,VWS V14.01,2013-01-04 18:40:00,
2013-01-04 10:50:00,48.7,41.9,29.88,WSW,237,0.0,0.0,77,0.00,,SCT250,0.00,VWS V14.01,2013-01-04 18:50:00,
2013-01-04 11:00:00,48.7,41.9,29.88,West,262,0.0,0.0,77,0.00,,SCT250,0.00,VWS V14.01,2013-01-04 19:00:00,
2013-01-04 11:10:00,48.7,40.5,29.88,WSW,249,2.7,2.7,73,0.00,,SCT250,0.00,VWS V14.01,2013-01-04 19:10:00,
2013-01-04 11:20:00,48.7,40.8,29.85,West,264,0.0,2.7,74,0.00,,SCT250,0.00,VWS V14.01,2013-01-04 19:20:00,
2013-01-04 11:30:00,49.5,41.5,29.85,NW,317,0.0,0.0,74,0.00,,SCT250,0.00,VWS V14.01,2013-01-04 19:30:00,
2013-01-04 11:40:00,50.5,41.5,29.85,SW,225,0.0,0.0,71,0.00,,SCT250,0.00,VWS V14.01,2013-01-04 19:40:00,
2013-01-04 11:50:00,50.5,41.5,29.85,NW,325,0.0,2.2,71,0.00,,SCT250,0.00,VWS V14.01,2013-01-04 19:50:00,
2013-01-04 12:00:00,51.4,42.0,29.83,WNW,287,0.0,0.0,70,0.00,,SCT250,0.00,VWS V14.01,2013-01-04 20:00:00,
2013-01-04 12:10:00,52.0,41.0,29.83,West,260,0.0,0.0,66,0.00,,SCT250,0.00,VWS V14.01,2013-01-04 20:10:00,
2013-01-04 12:20:00,52.0,41.0,29.83,NW,319,0.0,0.0,66,0.00,,SCT250,0.00,VWS V14.01,2013-01-04 20:20:00,
2013-01-04 12:30:00,52.7,41.7,29.83,SW,222,0.0,0.0,66,0.00,,SCT250,0.00,VWS V14.01,2013-01-04 20:30:00,
2013-01-04 12:40:00,52.7,41.7,29.83,SSW,202,0.0,0.0,66,0.00,,SCT250,0.00,VWS V14.01,2013-01-04 20:40:00,
2013-01-04 12:50:00,52.7,42.5,29.83,SW,227,0.0,0.0,68,0.00,,SCT250,0.00,VWS V14.01,2013-01-04 20:50:00,
2013-01-04 13:00:00,52.9,40.6,29.80,SW,218,0.0,0.0,63,0.00,,SCT250,0.00,VWS V14.01,2013-01-04 21:00:00,
2013-01-04 13:10:00,53.2,41.8,29.80,SW,222,0.0,0.0,65,0.00,,SCT250,0.00,VWS V14.01,2013-01-04 21:10:00,
2013-01-04 13:20:00,54.0,40.4,29.80,SW,233,0.0,0.0,60,0.00,,SCT250,0.00,VWS V14.01,2013-01-04 21:20:00,
2013-01-04 13:30:00,54.9,39.5,29.80,WSW,244,0.0,0.0,56,0.00,,SCT250,0.00,VWS V14.01,2013-01-04 21:30:00,
2013-01-04 13:40:00,55.6,37.2,29.80,WSW,243,0.0,0.0,50,0.00,,SCT250,0.00,VWS V14.01,2013-01-04 21:40:00,
2013-01-04 13:50:00,55.8,36.9,29.80,WSW,246,0.0,0.0,49,0.00,,SCT250,0.00,VWS V14.01,2013-01-04 21:50:00,
2013-01-04 14:00:00,56.1,37.8,29.80,NW,326,0.0,0.0,50,0.00,,SCT250,0.00,VWS V14.01,2013-01-04 22:00:00,
2013-01-04 14:10:00,56.1,38.3,29.80,WSW,243,0.0,0.0,51,0.00,,SCT250,0.00,VWS V14.01,2013-01-04 22:10:00,
2013-01-04 14:20:00,56.3,37.9,29.77,WNW,284,0.0,0.0,50,0.00,,SCT250,0.00,VWS V14.01,2013-01-04 22:20:00,
2013-01-04 14:30:00,56.1,38.3,29.77,WNW,303,0.0,0.0,51,0.00,,SCT250,0.00,VWS V14.01,2013-01-04 22:30:00,
2013-01-04 14:40:00,56.1,38.3,29.77,West,264,0.0,2.7,51,0.00,,SCT250,0.00,VWS V14.01,2013-01-04 22:40:00,
2013-01-04 14:50:00,55.9,38.6,29.77,West,265,0.0,0.0,52,0.00,,CLR,0.00,VWS V14.01,2013-01-04 22:50:00,
2013-01-04 15:00:00,55.9,39.1,29.77,WNW,285,0.0,0.0,53,0.00,,CLR,0.00,VWS V14.01,2013-01-04 23:00:00,
2013-01-04 15:10:00,56.1,39.2,29.77,NW,326,0.0,0.0,53,0.00,,CLR,0.00,VWS V14.01,2013-01-04 23:10:00,
2013-01-04 15:20:00,55.9,39.5,29.77,WSW,242,0.0,0.0,54,0.00,,CLR,0.00,VWS V14.01,2013-01-04 23:20:00,
2013-01-04 15:30:00,55.8,39.4,29.77,WSW,257,0.0,0.0,54,0.00,,CLR,0.00,VWS V14.01,2013-01-04 23:30:00,
2013-01-04 15:40:00,55.8,38.9,29.77,North,357,0.0,0.0,53,0.00,,CLR,0.00,VWS V14.01,2013-01-04 23:40:00,
2013-01-04 15:50:00,55.8,39.8,29.77,North,357,0.0,0.0,55,0.00,,CLR,0.00,VWS V14.01,2013-01-04 23:50:00,
2013-01-04 16:00:00,55.6,41.5,29.77,NNE,13,0.0,0.0,59,0.00,,CLR,0.00,VWS V14.01,2013-01-05 00:00:00,
2013-01-04 16:10:00,55.2,41.6,29.77,NNE,22,0.0,0.0,60,0.00,,CLR,0.00,VWS V14.01,2013-01-05 00:10:00,
2013-01-04 16:20:00,54.5,39.6,29.77,NNE,30,0.0,0.0,57,0.00,,CLR,0.00,VWS V14.01,2013-01-05 00:20:00,
2013-01-04 16:30:00,54.3,39.4,29.77,NNE,30,0.0,0.0,57,0.00,,CLR,0.00,VWS V14.01,2013-01-05 00:30:00,
2013-01-04 16:40:00,54.3,39.4,29.77,NNW,337,0.0,0.0,57,0.00,,SCT200,0.00,VWS V14.01,2013-01-05 00:40:00,
2013-01-04 16:50:00,52.7,40.5,29.77,NNW,331,0.0,0.0,63,0.00,,SCT200,0.00,VWS V14.01,2013-01-05 00:50:00,
2013-01-04 17:00:00,51.6,40.2,29.77,NNW,331,0.0,0.0,65,0.00,,SCT200,0.00,VWS V14.01,2013-01-05 01:00:00,
2013-01-04 17:10:00,51.4,40.1,29.77,NNW,338,0.0,0.0,65,0.00,,SCT200,0.00,VWS V14.01,2013-01-05 01:10:00,
2013-01-04 17:20:00,51.4,40.1,29.77,NNW,338,0.0,0.0,65,0.00,,SCT200,0.00,VWS V14.01,2013-01-05 01:20:00,
2013-01-04 17:30:00,50.2,40.8,29.77,North,349,0.0,0.0,70,0.00,,SCT200,0.00,VWS V14.01,2013-01-05 01:30:00,
2013-01-04 17:40:00,49.5,40.5,29.77,North,353,0.0,0.0,71,0.00,,SCT200,0.00,VWS V14.01,2013-01-05 01:40:00,
2013-01-04 17:50:00,48.7,40.8,29.80,North,353,0.0,0.0,74,0.00,,SCT200,0.00,VWS V14.01,2013-01-05 01:50:00,
2013-01-04 18:00:00,48.7,41.2,29.80,North,353,0.0,0.0,75,0.00,,SCT200,0.00,VWS V14.01,2013-01-05 02:00:00,
2013-01-04 18:10:00,48.0,40.8,29.80,North,353,0.0,0.0,76,0.00,,SCT200,0.00,VWS V14.01,2013-01-05 02:10:00,
2013-01-04 18:20:00,48.0,40.8,29.80,North,353,0.0,0.0,76,0.00,,SCT200,0.00,VWS V14.01,2013-01-05 02:20:00,
2013-01-04 18:30:00,47.8,41.0,29.80,North,353,0.0,0.0,77,0.00,,SCT200,0.00,VWS V14.01,2013-01-05 02:30:00,
2013-01-04 18:40:00,47.5,40.6,29.80,North,353,0.0,0.0,77,0.00,,SCT200,0.00,VWS V14.01,2013-01-05 02:40:00,
2013-01-04 18:50:00,47.1,40.6,29.80,North,353,0.0,0.0,78,0.00,,SCT200,0.00,VWS V14.01,2013-01-05 02:50:00,
2013-01-04 19:00:00,46.8,40.3,29.80,North,353,0.0,0.0,78,0.00,,SCT200,0.00,VWS V14.01,2013-01-05 03:00:00,
2013-01-04 19:10:00,46.6,40.4,29.80,NNE,16,0.0,0.0,79,0.00,,SCT200,0.00,VWS V14.01,2013-01-05 03:10:00,
2013-01-04 19:20:00,46.2,40.1,29.80,NNE,16,0.0,0.0,79,0.00,,SCT200,0.00,VWS V14.01,2013-01-05 03:20:00,
2013-01-04 19:30:00,46.0,39.9,29.80,NNE,16,0.0,0.0,79,0.00,,SCT200,0.00,VWS V14.01,2013-01-05 03:30:00,
2013-01-04 19:40:00,46.0,39.9,29.80,NNE,16,0.0,0.0,79,0.00,,SCT200,0.00,VWS V14.01,2013-01-05 03:40:00,
2013-01-04 19:50:00,45.9,40.0,29.80,NNE,16,0.0,0.0,80,0.00,,CLR,0.00,VWS V14.01,2013-01-05 03:50:00,
2013-01-04 20:00:00,45.9,40.0,29.80,NNE,16,0.0,0.0,80,0.00,,CLR,0.00,VWS V14.01,2013-01-05 04:00:00,
2013-01-04 20:10:00,45.0,39.8,29.80,NNE,17,0.0,0.0,82,0.00,,CLR,0.00,VWS V14.01,2013-01-05 04:10:00,
2013-01-04 20:20:00,45.0,40.1,29.80,NNE,17,0.0,0.0,83,0.00,,CLR,0.00,VWS V14.01,2013-01-05 04:20:00,
2013-01-04 20:30:00,45.1,40.3,29.80,NNE,17,0.0,0.0,83,0.00,,CLR,0.00,VWS V14.01,2013-01-05 04:30:00,
2013-01-04 20:40:00,45.1,40.3,29.80,NNE,17,0.0,0.0,83,0.00,,CLR,0.00,VWS V14.01,2013-01-05 04:40:00,
2013-01-04 20:50:00,44.8,39.9,29.80,NNE,17,0.0,0.0,83,0.00,,CLR,0.00,VWS V14.01,2013-01-05 04:50:00,
2013-01-04 21:00:00,43.7,39.2,29.80,NNE,17,0.0,0.0,84,0.00,,CLR,0.00,VWS V14.01,2013-01-05 05:00:00,
2013-01-04 21:10:00,43.5,39.0,29.80,NNE,17,0.0,0.0,84,0.00,,CLR,0.00,VWS V14.01,2013-01-05 05:10:00,
2013-01-04 21:20:00,43.3,39.1,29.80,NNE,17,0.0,0.0,85,0.00,,CLR,0.00,VWS V14.01,2013-01-05 05:20:00,
2013-01-04 21:30:00,43.0,38.8,29.80,NNE,17,0.0,0.0,85,0.00,,CLR,0.00,VWS V14.01,2013-01-05 05:30:00,
2013-01-04 21:40:00,42.4,38.6,29.80,NNE,17,0.0,0.0,86,0.00,,CLR,0.00,VWS V14.01,2013-01-05 05:40:00,
2013-01-04 21:50:00,42.3,38.7,29.80,NNE,17,0.0,0.0,87,0.00,,CLR,0.00,VWS V14.01,2013-01-05 05:50:00,
2013-01-04 22:00:00,42.3,38.7,29.80,NNE,16,0.0,0.0,87,0.00,,CLR,0.00,VWS V14.01,2013-01-05 06:00:00,
2013-01-04 22:10:00,42.3,39.0,29.80,NNE,17,0.0,0.0,88,0.00,,CLR,0.00,VWS V14.01,2013-01-05 06:10:00,
2013-01-04 22:20:00,42.3,39.0,29.83,NNE,17,0.0,0.0,88,0.00,,CLR,0.00,VWS V14.01,2013-01-05 06:20:00,
2013-01-04 22:30:00,42.3,39.0,29.83,NNE,17,0.0,0.0,88,0.00,,CLR,0.00,VWS V14.01,2013-01-05 06:30:00,
2013-01-04 22:40:00,42.3,39.5,29.83,NNE,17,0.0,0.0,90,0.00,,CLR,0.00,VWS V14.01,2013-01-05 06:40:00,
2013-01-04 22:50:00,42.1,39.4,29.83,NNE,19,0.0,0.0,90,0.00,,CLR,0.00,VWS V14.01,2013-01-05 06:50:00,
2013-01-04 23:00:00,41.7,39.0,29.83,NNE,19,0.0,0.0,90,0.00,,CLR,0.00,VWS V14.01,2013-01-05 07:00:00,
2013-01-04 23:10:00,41.5,39.1,29.83,NNE,21,0.0,0.0,91,0.00,,CLR,0.00,VWS V14.01,2013-01-05 07:10:00,
2013-01-04 23:20:00,41.4,38.9,29.83,NNE,21,0.0,0.0,91,0.00,,CLR,0.00,VWS V14.01,2013-01-05 07:20:00,
2013-01-04 23:30:00,41.4,39.2,29.83,NNE,21,0.0,0.0,92,0.00,,CLR,0.00,VWS V14.01,2013-01-05 07:30:00,
2013-01-04 23:40:00,41.2,39.3,29.83,NNE,21,0.0,0.0,93,0.00,,CLR,0.00,VWS V14.01,2013-01-05 07:40:00,
2013-01-04 23:50:00,41.0,38.9,29.80,NNE,21,0.0,0.0,92,0.00,,,0.00,VWS V14.01,2013-01-05 07:50:00,